Probability
0 0 0 0 0 0 0 0 0 0 0 0 0 0 0 0 0 0 0 0 0 0 0 0 0 0 0 0 0 0 0 0 0 0 0 0 0 0 0 0 0 0 0
0 0 0 0 0 0 0 0 0 0 0 0 0 0 0 0 0 0 0 0 0 0 0 0 0 0 0 0 0 0 0 0 0 0 0 0 0 0 0 0 0 0 0
0 0 0 0 0 0 0 0 0 0 0 0 0 0 0 0 0 0 0 0 0 0 0 0 0 0 0 0 0 0 0 0 0 0 0 0 0 0 0 0 0 0 0
0 0 0 0 0 0 0 0 0 0 0 0 0 0 0 0 0 0 0 0 0 0 0 0 0 0 0 0 0 0 0 0 0 0 0 0 0 0 0 0 0 0 0
0 0 0 0 0 0 0 0 0 0 0 0 0 0 0 0 0 0 0 0 0 0 0 0 0 0 0 0 0 0 0 0 0 0 0 0 0 0 0 0 0 0 0
0 0 0 0 0 0 0 0 0 0 0 0 0 0 0 0 0 0 0 0 0 0 0 0 0 0 0 0 0 0 0 0 0 0 0 0 0 0 0 0 0 0 0
0 0 0 0 0 0 0 0 0 0 0 0 0 0 0 0 0 0 0 0 0 0 0 0 0 0 0 0 0 0 0 0 0 0 0 0 0 0 0 0 0 0 0
0 0 0 0 0 0 0 0 0 0 0 0 0 0 0 0 0 0 0 0 0 0 0 0 0 0 0 0 0 0 0 0 0 0 0 0 0 0 0 0 0 0 0
0 0 0 0 0 0 0 0 0 0 0 0 0 0 0 0 0 0 0 0 0 0 0 0 0 0 0 0 0 0 0 0 0 0 0 0 0 0 0 0 0 0 0
0 0 0 0 0 0 0 0 0 0 0 0 0 0 0 0 0 0 0 0 0 0 0 0 0 0 0 0 0 0 0 0 0 0 0 0 0 0 0 0 0 0 0
0 0 0 0 0 0 0 0 0 0 0 0 0 0 0 0 0 0 0 0 0 0 0 0 0 0 0 0 0 0 0 0 0 0 0 0 0 0 0 0 0 0 0
0 0 0 0 0 0 0 0 0 0 0 0 0 0 0 0 0 0 0 0 0 0 0 0 0 0 0 0 0 0 0 0 0 0 0 0 0 0 0 0 0 0 0
0 0 0 0 0 0 0 0 0 0 0 0 0 0 0 0 0 0 0 0 0 0 0 0 0 0 0 0 0 0 0 0 0 0 0 0 0 0 0 0 0 0 0
0 0 0 0 0 0 0 0 0 0 0 0 0 0 0 0 0 0 0 0 0 0 0 0 0 0 0 0 0 0 0 0 0 0 0 0 0 0 0 0 0 0 0
0 0 0 0 0 0 0 0 0 0 0 0 0 0 0 0 0 0 0 0 0 0 0 0 0 0 0 0 0 0 0 0 0 0 0 0 0 0 0 0 0 0 0
0 0 0 0 0 0 0 0 0 0 0 0 0 0 0 0 0 0 0 0 0 0 0 0 0 0 0 0 0 0 0 0 0 0 0 0 0 0 0 0 0 0 0
0 0 0 0 0 0 0 0 0 0 0 0 0 0 0 0 0 0 0 0 0 0 0 0 0 0 0 0 0 0 0 0 0 0 0 0 0 0 0 0 0 0 0
0 0 0 0 0 0 0 0 0 0 0 0 0 0 0 0 0 0 0 0 0 0 0 0 0 0 0 0 0 0 0 0 0 0 0 0 0 0 0 0 0 0 0
0 0 0 0 0 0 0 0 0 0 0 0 0 0 0 0 0 0 0 0 0 0 0 0 0 0 0 0 0 0 0 0 0 0 0 0 0 0 0 0 0 0 0
0 0 0 0 0 0 0 0 0 0 0 0 0 0 0 0 0 0 0 0 0 0 0 0 0 0 0 0 0 0 0 0 0 0 0 0 0 0 0 0 0 0 0
0 0 0 0 0 0 0 0 0 0 0 0 0 0 0 0 0 0 0 0 0 0 0 0 0 0 0 0 0 0 0 0 0 0 0 0 0 0 0 0 0 0 0
0 0 0 0 0 0 0 0 0 0 0 0 0 0 0 0 0 0 0 0 0 0 0 0 0 0 0 0 0 0 0 0 0 0 0 0 0 0 0 0 0 0 0
0 0 0 0 0 0 0 0 0 0 0 0 0 0 0 0 0 0 0 0 0 0 0 0 0 0 0 0 0 0 0 0 0 0 0 0 0 0 0 0 0 0 0
0 0 0 0 0 0 0 0 0 0 0 0 0 0 0 0 0 0 0 0 0 0 0 0 0 0 0 0 0 0 0 0 0 0 0 0 0 0 0 0 0 0 0
0 0 0 0 0 0 0 0 0 0 0 0 0 0 0 0 0 0 0 0 0 0 0 0 0 0 0 0 0 0 0 0 0 0 0 0 0 0 0 0 0 0 0
0 0 0 0 0 0 0 0 0 0 0 0 0 0 0 0 0 0 0 0 0 0 0 0 0 0 0 0 0 0 0 0 0 0 0 0 0 0 0 0 0 0 0
Height
5823 5823 5822 5822 5822 5821 5821 5820 5820 5819 5819 5818 5817 5816 5816 5815 5814 5813 5813 5812 5810 5809 5809 5807 5806 5805 5804 5803 5803 5802 5801 5800 5799 5798 5798 5797 5797 5796 5796 5796 5796 5796 5796
5818 5818 5817 5817 5816 5816 5815 5815 5814 5814 5813 5812 5811 5810 5809 5808 5808 5807 5806 5805 5804 5802 5801 5800 5799 5798 5797 5796 5795 5794 5793 5792 5791 5790 5789 5789 5788 5788 5788 5788 5787 5787 5787
5812 5812 5812 5811 5811 5810 5810 5809 5809 5808 5807 5806 5805 5804 5803 5802 5801 5800 5799 5798 5797 5795 5794 5793 5791 5790 5789 5787 5786 5785 5785 5784 5783 5782 5781 5780 5780 5779 5779 5778 5778 5778 5778
5806 5806 5806 5805 5805 5804 5804 5803 5802 5801 5801 5800 5799 5798 5797 5795 5794 5793 5792 5790 5789 5788 5786 5785 5783 5782 5780 5779 5778 5777 5776 5775 5774 5773 5772 5771 5770 5769 5769 5768 5768 5767 5767
5799 5799 5799 5799 5798 5798 5797 5796 5796 5795 5794 5793 5792 5791 5790 5789 5787 5786 5785 5783 5781 5780 5778 5777 5775 5774 5772 5770 5769 5768 5766 5765 5764 5763 5762 5761 5760 5759 5758 5757 5757 5756 5756
5792 5792 5792 5791 5791 5790 5790 5789 5789 5788 5787 5786 5785 5784 5783 5782 5780 5779 5777 5775 5774 5772 5770 5769 5767 5765 5763 5761 5760 5758 5756 5755 5754 5753 5751 5750 5749 5748 5747 5746 5745 5744 5743
5784 5784 5784 5783 5783 5783 5782 5782 5781 5780 5780 5778 5778 5776 5775 5774 5773 5771 5769 5768 5766 5764 5762 5760 5758 5756 5754 5752 5750 5748 5746 5745 5743 5741 5740 5739 5737 5736 5734 5733 5732 5731 5731
5775 5775 5775 5775 5774 5774 5774 5774 5773 5772 5772 5771 5770 5768 5767 5767 5764 5763 5761 5759 5757 5755 5753 5751 5749 5747 5745 5742 5740 5738 5736 5734 5731 5730 5728 5726 5725 5723 5722 5720 5719 5718 5717
5765 5765 5766 5766 5766 5765 5765 5765 5764 5764 5763 5762 5761 5760 5759 5758 5756 5754 5752 5750 5748 5746 5744 5742 5739 5737 5735 5732 5730 5728 5725 5723 5720 5718 5715 5713 5711 5709 5708 5706 5705 5704 5702
5754 5755 5755 5756 5756 5756 5756 5756 5755 5754 5754 5753 5752 5751 5750 5748 5747 5746 5744 5741 5739 5737 5734 5732 5729 5727 5724 5722 5719 5716 5714 5711 5708 5705 5702 5700 5697 5695 5693 5691 5690 5688 5686
5744 5744 5745 5745 5746 5746 5746 5745 5745 5745 5744 5743 5742 5741 5739 5738 5737 5735 5734 5732 5729 5726 5724 5721 5718 5715 5713 5710 5707 5704 5701 5698 5695 5692 5689 5685 5683 5680 5678 5675 5673 5671 5669
5731 5732 5733 5734 5734 5735 5735 5735 5734 5734 5734 5733 5732 5731 5730 5728 5727 5725 5723 5721 5718 5716 5712 5709 5706 5703 5700 5697 5694 5691 5687 5684 5680 5677 5673 5670 5667 5663 5661 5658 5655 5653 5651
5718 5719 5720 5721 5722 5723 5723 5723 5723 5723 5723 5722 5721 5720 5719 5718 5716 5714 5712 5709 5707 5704 5700 5697 5693 5690 5687 5683 5679 5676 5672 5668 5664 5660 5656 5652 5649 5645 5642 5639 5636 5633 5631
5703 5705 5706 5708 5709 5710 5711 5711 5711 5711 5711 5711 5710 5709 5708 5706 5704 5702 5700 5698 5695 5692 5689 5684 5680 5676 5672 5668 5664 5660 5656 5652 5647 5642 5638 5634 5629 5626 5622 5619 5615 5612 5609
5687 5690 5692 5694 5696 5697 5698 5699 5699 5699 5699 5699 5699 5698 5696 5695 5693 5691 5688 5685 5683 5680 5677 5672 5666 5662 5657 5653 5648 5644 5639 5634 5629 5624 5619 5614 5609 5605 5600 5596 5593 5589 5586
5671 5674 5677 5680 5682 5684 5685 5686 5687 5687 5687 5687 5687 5686 5685 5683 5681 5678 5675 5672 5669 5666 5663 5659 5653 5647 5642 5637 5631 5627 5621 5616 5610 5604 5598 5593 5588 5583 5578 5573 5568 5564 5560
5654 5658 5662 5665 5668 5670 5672 5674 5675 5676 5676 5676 5676 5674 5673 5671 5668 5665 5662 5659 5655 5651 5648 5644 5638 5632 5626 5620 5614 5608 5601 5595 5589 5582 5576 5570 5564 5559 5553 5548 5542 5537 5533
5639 5643 5648 5652 5655 5658 5660 5662 5663 5664 5665 5665 5664 5663 5661 5658 5656 5653 5649 5645 5641 5636 5632 5628 5622 5615 5609 5601 5595 5589 5582 5575 5567 5560 5553 5546 5539 5533 5526 5520 5514 5508 5503
5625 5630 5635 5639 5643 5646 5649 5651 5652 5653 5654 5653 5652 5651 5649 5646 5643 5640 5636 5631 5626 5621 5616 5611 5605 5598 5591 5582 5576 5570 5562 5553 5544 5536 5528 5520 5513 5505 5497 5490 5484 5478 5472
5613 5619 5624 5628 5632 5635 5638 5640 5642 5643 5643 5642 5641 5640 5637 5634 5631 5627 5622 5617 5612 5606 5600 5594 5588 5580 5572 5563 5556 5549 5542 5531 5520 5510 5502 5494 5485 5477 5469 5462 5456 5450 5444
5604 5610 5614 5619 5622 5626 5629 5631 5632 5633 5633 5632 5631 5628 5626 5622 5618 5614 5609 5603 5597 5590 5584 5577 5570 5562 5553 5544 5536 5527 5519 5510 5498 5485 5478 5468 5459 5452 5443 5435 5429 5424 5420
5598 5603 5607 5611 5614 5618 5620 5622 5623 5623 5623 5622 5620 5618 5614 5610 5606 5601 5595 5588 5581 5574 5567 5560 5552 5542 5533 5523 5514 5504 5494 5486 5477 5464 5456 5448 5436 5430 5422 5415 5407 5402 5398
5593 5597 5601 5604 5608 5610 5612 5614 5614 5614 5614 5612 5610 5607 5603 5598 5593 5587 5581 5573 5565 5556 5549 5541 5532 5522 5512 5502 5493 5483 5472 5463 5453 5442 5436 5432 5420 5413 5405 5396 5388 5383 5378
5591 5594 5597 5599 5602 5604 5606 5607 5607 5606 5604 5602 5599 5596 5591 5586 5580 5574 5567 5559 5549 5540 5531 5522 5512 5502 5491 5481 5472 5463 5454 5446 5437 5424 5415 5414 5406 5397 5389 5380 5371 5365 5361
5589 5591 5593 5596 5598 5599 5600 5600 5599 5597 5595 5592 5588 5584 5579 5573 5567 5560 5553 5544 5534 5523 5512 5502 5491 5481 5471 5462 5453 5445 5437 5429 5423 5412 5399 5395 5389 5382 5376 5367 5357 5350 5345
5588 5590 5591 5592 5593 5594 5593 5592 5591 5588 5586 5582 5578 5573 5567 5560 5553 5545 5537 5527 5517 5506 5495 5483 5473 5463 5454 5445 5437 5430 5422 5414 5406 5399 5388 5381 5374 5367 5365 5359 5348 5339 5333
Wind_Speed
25 25 25 25 26 26 26 27 27 27 28 28 28 29 29 29 30 30 31 32 33 34 35 35 36 36 36 36 35 35 35 34 34 34 34 34 34 33 33 33 33 32 32
27 26 26 26 27 27 28 28 28 29 29 30 30 31 31 31 31 32 32 33 34 34 35 36 36 37 37 37 36 36 36 36 36 36 35 35 36 36 36 36 36 36 36
28 28 28 28 28 28 29 29 30 30 31 31 32 32 32 32 33 33 34 34 35 35 35 35 36 36 37 37 37 37 37 38 38 38 38 38 38 38 39 39 39 39 39
30 29 29 30 30 30 30 30 30 31 32 32 33 33 34 34 34 34 34 35 35 35 35 36 36 36 37 37 38 39 39 39 39 40 40 41 41 41 42 42 42 42 43
33 32 32 32 32 32 32 32 32 32 33 33 34 34 35 35 34 35 35 35 35 36 36 36 37 37 37 37 38 39 40 40 40 41 41 42 43 44 44 45 45 45 46
36 35 35 35 35 35 34 34 34 34 35 35 35 36 36 36 36 36 36 36 36 36 37 37 37 37 37 38 38 39 40 40 41 42 42 43 44 45 45 46 47 48 48
39 38 38 38 38 38 37 37 37 37 37 37 37 37 37 37 37 37 37 37 37 37 37 37 38 38 38 39 39 40 41 42 42 43 44 44 45 46 47 48 49 50 50
42 42 41 41 41 41 40 40 40 39 40 39 39 39 38 37 38 38 38 38 38 38 38 38 39 39 40 40 41 42 43 43 44 45 46 46 47 48 49 50 51 52 53
46 45 45 45 45 44 43 43 42 42 42 42 41 41 40 40 39 39 39 39 39 39 40 40 40 40 41 42 43 43 44 45 46 47 48 49 50 50 51 52 53 54 55
49 48 48 48 48 47 46 45 45 45 45 44 44 43 43 42 41 41 40 41 41 41 42 42 42 43 43 45 46 46 47 47 48 49 50 51 52 53 54 55 56 57 58
52 51 51 50 50 50 49 48 48 47 47 46 46 45 45 44 43 43 42 42 43 44 43 44 45 45 46 47 48 49 50 50 52 53 54 54 55 57 58 59 59 60 62
54 54 53 53 52 52 51 50 50 50 49 48 48 47 47 46 46 45 45 45 45 45 46 46 47 49 50 50 51 52 53 54 55 56 57 58 59 60 61 62 63 64 65
57 56 55 55 55 54 53 52 52 51 51 50 50 49 48 48 48 48 47 47 47 47 48 49 51 52 53 54 55 56 57 59 59 60 61 63 64 65 65 66 67 68 68
60 59 58 57 56 55 54 53 53 53 52 52 51 50 50 50 49 49 49 49 49 49 50 52 53 55 57 58 59 60 62 63 64 65 67 68 68 69 70 71 71 72 72
63 62 60 58 57 56 55 55 55 54 54 53 52 51 51 50 51 51 50 50 51 51 53 54 56 58 60 61 63 64 65 66 68 69 70 71 72 73 74 75 75 76 77
64 63 60 58 57 57 57 56 55 55 54 53 52 51 50 50 51 51 50 51 53 54 55 57 59 61 63 64 66 68 69 70 71 72 73 74 75 76 76 77 78 79 80
64 62 60 58 57 56 56 56 55 55 53 52 51 50 50 50 51 51 51 54 56 57 59 61 64 65 67 68 69 71 72 72 74 75 75 76 77 78 80 81 82 83 84
60 59 58 57 55 54 54 54 53 53 51 50 50 49 49 50 51 52 54 57 58 60 62 64 66 67 69 71 72 73 74 75 76 77 78 79 81 82 84 85 86 86 86
54 54 54 53 52 52 51 51 50 49 48 48 48 48 48 49 51 53 56 59 61 63 64 66 67 69 71 72 73 74 76 77 78 80 82 83 84 85 85 85 84 83 82
47 48 48 48 47 47 47 46 46 45 45 45 45 46 48 50 53 55 58 60 62 64 66 68 70 71 72 74 75 76 77 79 81 83 84 83 83 82 82 81 78 76 74
39 40 40 41 41 41 41 41 42 42 42 43 44 46 48 51 54 56 58 61 63 66 68 69 70 72 74 76 78 79 80 80 81 81 80 79 78 76 74 72 70 67 65
31 32 33 34 34 35 36 37 38 39 40 41 43 46 48 52 55 57 60 62 64 66 68 70 71 74 76 78 79 80 79 78 75 74 72 69 68 65 63 62 62 61 60
24 25 26 28 29 31 32 33 34 36 39 41 44 47 49 53 56 57 59 61 64 67 70 72 74 76 77 78 77 75 73 70 67 66 63 59 59 59 59 59 59 58 56
19 21 23 24 25 27 28 30 33 35 38 40 43 46 49 52 55 57 59 62 65 68 71 73 74 75 74 73 71 68 66 62 59 59 59 56 55 55 54 53 53 53 51
15 17 19 22 25 26 27 30 32 34 37 40 43 46 49 52 55 57 60 63 66 68 70 71 72 71 69 67 64 61 57 56 54 54 56 54 51 48 46 46 48 49 48
13 15 16 19 21 24 27 29 31 34 37 40 44 47 50 53 55 58 61 63 65 67 68 69 68 65 61 57 55 53 52 52 51 49 49 47 45 45 40 39 42 43 43
Wind_Direction
278 279 281 282 283 284 285 286 286 286 287 287 288 289 289 289 289 288 289 289 288 287 286 286 286 286 286 286 286 285 284 284 284 282 280 278 277 276 276 275 274 274 274
274 276 278 280 281 283 284 285 285 285 286 287 288 289 289 290 290 290 291 291 290 290 289 288 287 287 286 285 284 284 284 283 282 281 280 279 278 276 275 274 274 273 273
271 273 275 277 279 281 283 284 285 286 286 287 287 288 289 290 291 291 291 291 291 291 291 290 289 288 287 285 284 283 283 283 282 281 280 279 278 277 276 275 274 273 273
269 271 273 275 278 280 282 284 285 285 286 286 287 287 288 289 290 290 291 291 291 291 291 291 290 289 288 287 285 284 283 283 282 282 281 279 279 278 277 276 275 274 274
268 269 271 274 276 278 280 282 284 285 286 286 287 287 287 288 289 290 291 291 291 291 291 292 292 291 290 288 286 285 284 283 282 282 281 280 279 278 277 276 275 275 274
266 268 270 273 275 276 278 280 282 283 284 285 286 286 287 287 288 289 290 291 291 292 292 293 293 293 292 290 289 288 286 285 284 283 282 281 280 279 278 277 276 275 275
266 268 270 272 274 275 277 278 280 281 283 284 284 285 286 287 288 288 289 290 291 292 293 293 294 294 293 292 291 290 288 287 286 285 284 282 281 280 279 278 277 276 276
266 267 268 270 272 274 276 278 279 280 281 282 283 283 284 285 287 288 289 290 291 292 293 293 294 294 294 293 293 292 290 289 288 287 285 284 283 281 280 278 278 277 276
263 264 266 268 270 273 275 277 278 278 280 281 282 282 283 284 285 287 288 289 290 292 293 293 293 294 293 294 293 293 292 291 290 289 287 286 285 284 282 280 279 278 277
262 264 266 268 269 271 273 274 276 277 278 280 280 282 282 283 285 285 287 288 289 291 292 292 293 292 293 293 293 292 292 291 290 289 289 288 287 286 284 283 282 280 278
261 263 265 266 267 269 270 272 273 275 276 277 279 281 282 282 284 285 286 287 288 289 290 292 292 292 293 293 293 293 292 292 291 291 290 289 288 287 286 284 283 282 280
260 261 262 263 265 266 268 269 271 273 274 275 277 279 281 282 284 284 285 286 287 288 289 290 291 292 293 294 294 294 293 293 293 292 291 291 290 288 287 286 284 283 282
259 259 259 261 262 264 265 266 268 270 271 273 275 277 279 281 283 284 285 286 286 288 289 289 291 292 293 294 295 294 295 294 294 293 292 292 291 289 288 287 286 284 283
258 258 258 259 260 261 263 264 265 268 269 271 273 275 277 280 282 283 284 284 285 286 287 288 290 292 293 294 295 295 295 295 294 294 293 292 291 290 289 288 286 285 283
258 257 257 257 258 259 261 263 264 266 268 270 272 274 276 278 280 282 283 283 284 286 287 288 290 292 293 294 294 295 295 295 294 293 293 292 291 290 289 287 286 285 284
257 257 256 256 257 257 259 260 262 264 267 269 272 274 276 278 280 281 281 282 284 286 287 289 291 292 293 294 294 295 295 295 294 293 292 291 290 289 288 288 286 285 285
255 255 254 255 256 257 258 259 261 263 266 269 271 274 276 277 278 280 281 282 285 286 288 290 292 293 294 294 295 296 296 295 295 294 293 292 291 290 289 288 287 286 285
253 253 253 254 255 257 258 259 262 264 266 268 271 274 275 277 278 280 281 284 285 287 289 291 293 294 295 295 297 297 296 296 295 295 294 293 292 292 291 289 288 287 286
252 252 253 254 255 257 258 260 263 264 266 269 271 274 275 277 279 280 282 285 288 290 292 293 294 295 296 297 297 297 298 297 296 296 295 294 294 293 292 291 290 289 287
250 250 252 254 256 257 259 261 263 265 267 269 271 273 275 277 279 281 283 286 289 292 293 295 296 297 298 298 298 298 298 298 297 296 296 295 295 294 293 292 291 289 288
249 249 251 253 255 257 258 260 262 264 266 269 272 275 276 278 281 284 287 290 291 293 295 297 298 299 299 299 299 299 299 298 298 297 297 297 296 296 294 293 292 290 289
247 247 248 250 252 254 256 258 261 264 266 270 274 277 280 283 286 288 291 293 295 296 298 299 300 300 300 300 300 300 300 300 299 298 298 298 297 297 296 295 293 291 290
242 245 246 246 248 251 255 259 264 267 270 273 277 281 285 287 289 292 295 297 298 300 300 301 302 302 302 302 302 302 302 302 301 300 299 299 298 298 297 296 294 292 290
239 241 243 246 247 253 259 262 267 272 274 278 282 286 289 292 295 297 299 300 301 302 302 303 304 304 304 304 304 304 304 303 303 302 301 301 299 299 298 296 295 293 292
236 240 245 247 252 258 264 270 274 278 282 285 289 292 294 297 298 300 301 302 303 304 305 306 306 306 306 306 306 306 306 305 304 303 303 304 303 301 300 298 296 295 295
240 250 256 260 264 269 274 277 281 285 289 292 295 297 299 300 302 304 305 306 306 307 308 308 308 308 308 309 309 309 309 309 308 306 305 306 305 303 301 297 296 296 296